Regional Weather Roundup
Issued by NWS

Home | Current Version | Previous Version | Text Only | Print | Product List | Glossary Off
Versions: 1 2 3 4 5 6 7 8 9 10 11 12 13 14 15 16 17 18 19 20 21 22 23 24 25 26 27

000
ASUS45 KBOU 240007
RWRCO

WEATHER ROUNDUP FOR COLORADO
NATIONAL WEATHER SERVICE DENVER/BOULDER CO
600 PM MDT MON MAY 23 2016

NOTE: "FAIR" INDICATES FEW OR NO CLOUDS BELOW 12000 FEET WITH NO
SIGNIFICANT WEATHER AND/OR OBSTRUCTIONS TO VISIBILITY.

COZ001>005-013-030-031-240100-
...NORTHWEST COLORADO...

CITY           SKY/WX    TMP DP  RH WIND       PRES   REMARKS
CRAIG          CLOUDY    65  26  23 CALM      29.90S
HAYDEN         FAIR      57  25  28 NE3       29.92F
MEEKER         CLOUDY    65  23  20 CALM      29.89S
MOUNT WERNER   NOT AVBL
STEAMBOAT SPGS PTSUNNY   59  27  29 N7        29.93S
WALDEN         FAIR      54  21  28 W9        29.99F
$$

COZ006>008-011-240100-
...WEST CENTRAL VALLEYS...

CITY           SKY/WX    TMP DP  RH WIND       PRES   REMARKS
GRAND JUNCTION FAIR      72  20  14 NW7       29.81S
MONTROSE       FAIR      71  13  10 SW14G23   29.86F
EAGLE          MOSUNNY   64  21  19 SW10G24   29.92S
RIFLE          FAIR      70  23  17 W14       29.83F
DELTA          FAIR      78  11   8 SW15      29.83S
NUCLA          FAIR      70  12  11 S9G17     29.92S
$$

COZ017>023-064>068-240100-
...SOUTHWEST COLORADO...

CITY           SKY/WX    TMP DP  RH WIND       PRES   REMARKS
DURANGO        FAIR      67  17  14 NW6       29.94F
CORTEZ         FAIR      72  16  12 SW10      29.90F
PAGOSA SPRINGS FAIR      65  13  13 W9G17     30.01S
TELLURIDE      FAIR      57   9  14 SW13G28   30.05F
WOLF CREEK PAS FAIR      39  18  41 SW29G43   30.22F
$$

COZ009-010-012-014-032>034-037-058>063-240100-
...CENTRAL COLORADO...

CITY           SKY/WX    TMP DP  RH WIND       PRES   REMARKS
ASPEN          FAIR      60  19  20 W7        29.95R
BUENA VISTA    FAIR      64  11  12 S12G21    29.95R
COPPER MTN     NOT AVBL
BERTHOUD PASS  FAIR      34  27  75 NW9G22    30.18S WCI  26
COTTONWOOD PAS FAIR      55   5  13 W13G20    30.06R
GUNNISON       FAIR      61  18  18 SW13G23   29.97S
KREMMLING      PTSUNNY   55  23  28 NW5G10    29.94S
LEADVILLE      FAIR      52   8  17 SW13G21   30.05R
MONARCH PASS   FAIR      43  18  36 W29G37    30.27R
SALIDA         NOT AVBL
SUNLIGHT       PTSUNNY   46  23  39 SW3       30.13S
WILKERSON PASS CLOUDY    45  23  42 SW7       30.15S
$$

COZ069>075-240100-
...SAN LUIS VALLEY/SANGRE DE CRISTO MOUNTAINS...

CITY           SKY/WX    TMP DP  RH WIND       PRES   REMARKS
ALAMOSA        FAIR      68  18  14 W21       29.96R
LA VETA PASS   FAIR      54  19  26 S10G25    30.09S
SAGUACHE       FAIR      66  18  15 NW14G26   29.96R
$$

COZ035-036-038>040-240100-
...NORTHERN COLORADO FRONT RANGE...

CITY           SKY/WX    TMP DP  RH WIND       PRES   REMARKS
DENVER INTL AP PTSUNNY   62  42  47 NE13      29.86F
DMNS CITY PARK   N/A     63  38  38 NE5G15    29.86S
AURORA         PTSUNNY   64  41  43 E9        29.87F
FRONT RANGE AP NOT AVBL
ERIE MUNI ARPT FAIR      63  43  48 E8        29.87S
BOULDER MUN AP PTSUNNY   63  43  48 E5        29.88R
CENTENNIAL     PTSUNNY   62  38  40 E7        29.87F
BROOMFIELD     PTSUNNY   59  43  55 NE5       29.89S
FORT COLLINS   FAIR      66  43  42 N7        29.90R
LONGMONT       FAIR      68  43  41 NE5       29.88S
$$

COZ041-046-047-076>085-087-088-240100-
...PIKES PEAK/PALMER DIVIDE AND SOUTHERN FOOTHILLS...

CITY           SKY/WX    TMP DP  RH WIND       PRES   REMARKS
COLO. SPRINGS  FAIR      70  32  24 S12       29.88F
A. F. ACADEMY  PTSUNNY   64  36  34 N16G23    29.88S
SCHRIEVER AFB  NOT AVBL
ELLICOTT       FAIR     N/A N/A N/A S14G20    29.86S
FALCON         FAIR      64  30  27 S12       29.92S
FORT CARSON    NOT AVBL
LIMON          FAIR      68  33  27 S8        29.84F
MONUMENT HILL  PTSUNNY   55  37  50 N13       29.95R
TRINIDAD       FAIR      78  31  17 VRB5      29.81F
$$

COZ042>045-048>051-090-091-240100-
...NORTHEAST COLORADO...

CITY           SKY/WX    TMP DP  RH WIND       PRES   REMARKS
GREELEY ARPT   FAIR      64  39  39 E12       29.87S
AKRON          FAIR      60  47  61 N9        29.88F
BURLINGTON     FAIR      74  41  30 SE14      29.82S
WRAY           FAIR      72  37  28 SE6       29.81S
STERLING       FAIR      68  41  37 W13       29.84F
HOLYOKE        FAIR      79  41  25 E9        29.82F
FORT MORGAN    FAIR      63  41  44 NE9       29.86F
$$

COZ086-089-092>099-240100-
...SOUTHEAST COLORADO...

CITY           SKY/WX    TMP DP  RH WIND       PRES   REMARKS
PUEBLO         FAIR      80  36  20 E18G24    29.75F
LA JUNTA       FAIR      82  39  21 E14       29.74F
LAMAR          FAIR      80  50  34 E12       29.73F
SPRINGFIELD      N/A     79  41  25 SE18      29.76F
$$




USA.gov is the U.S. government's official web portal to all federal, state and local government web resources and services.